Regional Weather Roundup
Issued by NWS Kansas City/Pleasant Hill, MO

Home | Current Version | Previous Version | Graphics & Text | Print | Product List | Glossary Off
Versions: 1 2 3 4 5 6 7 8 9 10 11 12 13 14 15 16 17 18 19 20 21 22 23 24 25 26 27 28 29 30 31 32 33 34 35 36 37 38 39 40 41 42 43 44 45 46 47 48 49 50

000
ASUS43 KEAX 290610
RWREAX

WEATHER ROUNDUP FOR EASTERN KANSAS AND NORTHWEST MISSOURI
NATIONAL WEATHER SERVICE KANSAS CITY/PLEASANT HILL MO
1200 AM CST THU JAN 29 2015

KSZ040-057-103>105-MOZ028-029-037-043-290700-
...KANSAS CITY METROPOLITAN AREA...

CITY           SKY/WX    TMP DP  RH WIND       PRES   REMARKS
K.C. INTL      PTCLDY    52  38  58 NW18G33   29.85R
6HR MIN TEMP:  52; 6HR MAX TEMP:  66;

K.C. DOWNTOWN  PTCLDY    55  37  50 NW14G24   29.84R
6HR MIN TEMP:  55; 6HR MAX TEMP:  70;

LEES SUMMIT    CLEAR     56  36  47 NW17G30   29.85R
6HR MIN TEMP:  55; 6HR MAX TEMP:  68;

OLATHE - IXD   CLEAR     54  36  50 NW13      29.88R
6HR MIN TEMP:  52; 6HR MAX TEMP:  65;

OLATHE - OJC   CLEAR     55  36  48 NW16G24   29.85R
6HR MIN TEMP:  55; 6HR MAX TEMP:  67;

LAWRENCE       CLEAR     54  35  48 NW24G33   29.90R

$$

MOZ001>008-011>017-020>025-030>033-038>040-044>046-053-054-290700-
...NORTHERN AND CENTRAL MISSOURI...

CITY           SKY/WX    TMP DP  RH WIND       PRES   REMARKS
ST. JOSEPH     PTCLDY    48  38  68 NW20G25   29.88R
6HR MIN TEMP:  48; 6HR MAX TEMP:  65;

MOSBY          PTCLDY    54  37  54 NW12G21   29.83R
WARRENSBURG    PTCLDY    55  36  47 W15G21    29.81R
WHITEMAN AFB   PTCLDY    57  39  51 W13       29.79R
6HR MIN TEMP:  51; 6HR MAX TEMP:  60;

CLINTON        MOCLDY    55  43  62 W12       29.82R
SEDALIA        PTCLDY    56  41  57 SW13      29.79R
6HR MIN TEMP:  56; 6HR MAX TEMP:  61;

WARSAW         NOT AVBL
MARSHALL       CLEAR     54  43  66 SW9       29.77R
CHILLICOTHE      N/A     52  37  56 NW10G24   29.79R
6HR MIN TEMP:  51; 6HR MAX TEMP:  62;

MOBERLY        PTCLDY    55  37  50 SW13G21   29.74R
KIRKSVILLE     CLEAR     51  38  60 W15G23    29.71R
6HR MIN TEMP:  43; 6HR MAX TEMP:  54;


$$

MOZ041-047>049-056>058-063>065-088>090-097-290700-
...EASTERN AND SOUTHERN MISSOURI...

CITY           SKY/WX    TMP DP  RH WIND       PRES   REMARKS
ST. LOUIS INTL CLOUDY    52  36  54 S16G23    29.80F
6HR MIN TEMP:  45; 6HR MAX TEMP:  52;

SPIRIT OF STL  CLOUDY    52  37  56 SW12G20   29.78F
COLUMBIA       CLOUDY    54  39  57 S16       29.77S
JEFFERSON CITY CLOUDY    56  38  50 SW14G20   29.78F
MEXICO         CLOUDY    50  41  71 SW12G23   29.74F
HANNIBAL       CLOUDY    48  34  57 S14       29.71S
ROLLA          CLOUDY    49  37  63 S16       29.80F
LEBANON        CLOUDY    54  41  62 S13G20    29.84S
OSAGE BEACH    CLOUDY    54  37  54 S7        29.81F
SPRINGFIELD    MOCLDY    57  41  55 SW14      29.86F
BRANSON        MOCLDY    63  43  48 SW10G18   29.90S
JOPLIN         CLOUDY    61  40  45 SW14      29.90R
WEST PLAINS    MOCLDY    48  37  65 S8        29.91F

$$

IAZ060-094-KSZ022-034>040-054-083-096-NEZ052-066-093-290700-
...KANSAS...SOUTHEAST NEBRASKA AND IOWA...

CITY           SKY/WX    TMP DP  RH WIND       PRES   REMARKS
TOPEKA         CLEAR     53  34  48 NW15      29.92R
6HR MIN TEMP:  50; 6HR MAX TEMP:  66;

MANHATTAN      CLEAR     55  32  41 N10G17    29.97R
EMPORIA        CLEAR     53  32  44 NW12      29.95R
CHANUTE        PTCLDY    60  34  37 NW15      29.92R
WICHITA        PTCLDY    58  29  33 NW20      30.03R
OMAHA          CLOUDY    43  36  76 NW32G43   29.93R WCI  32
LINCOLN        CLOUDY    44  35  70 N28G45    30.00R WCI  34
FALLS CITY     PTCLDY    47  37  68 NW20G35   29.90R
LAMONI         PTCLDY    42  35  76 NW29G37   29.78R WCI  31
DES MOINES     CLOUDY    38  33  82 N28G36    29.78R WCI  26

$$




USA.gov is the U.S. government's official web portal to all federal, state and local government web resources and services.